This is the latest recevied weather packets stored in our database for station/object OK1VCF-8. If no packets are shown the sender has not sent any weather packets the latest 10 day(s).
| Time | Temp. | Humidity | Pressure | Rain* | Wind** | Luminosity | Snow |
|---|---|---|---|---|---|---|---|
| 1777458895 | 12.78° C | 34% | 1026.8 hPa | - | - | - | - |
| 1777458454 | 12.22° C | 34% | 1026.7 hPa | - | - | - | - |
| 1777458014 | 12.22° C | 33% | 1026.8 hPa | - | - | - | - |
| 1777457575 | 12.22° C | 34% | 1026.8 hPa | - | - | - | - |
| 1777457136 | 12.22° C | 35% | 1027 hPa | - | - | - | - |
| 1777456697 | 12.22° C | 34% | 1027 hPa | - | - | - | - |
| 1777456257 | 11.67° C | 35% | 1027.1 hPa | - | - | - | - |
| 1777455818 | 11.11° C | 34% | 1027 hPa | - | - | - | - |
| 1777455380 | 11.11° C | 34% | 1027.1 hPa | - | - | - | - |
| 1777454940 | 11.67° C | 35% | 1027.2 hPa | - | - | - | - |
| 1777453472 | 11.11° C | 34% | 1027.4 hPa | - | - | - | - |
| 1777453032 | 11.11° C | 34% | 1027.2 hPa | - | - | - | - |
| 1777452592 | 11.11° C | 34% | 1027.3 hPa | - | - | - | - |
| 1777452153 | 11.11° C | 34% | 1027.2 hPa | - | - | - | - |
| 1777451716 | 11.11° C | 33% | 1027.2 hPa | - | - | - | - |
| 1777451276 | 11.11° C | 32% | 1027.2 hPa | - | - | - | - |
| 1777450838 | 10.56° C | 34% | 1027.2 hPa | - | - | - | - |
| 1777450399 | 11.11° C | 34% | 1027.4 hPa | - | - | - | - |
| 1777449959 | 11.11° C | 33% | 1027.2 hPa | - | - | - | - |
| 1777449521 | 11.11° C | 34% | 1027.1 hPa | - | - | - | - |
| 1777449083 | 10° C | 34% | 1027.2 hPa | - | - | - | - |
| 1777448644 | 10.56° C | 35% | 1027.1 hPa | - | - | - | - |
| 1777448207 | 10.56° C | 36% | 1027.2 hPa | - | - | - | - |
| 1777447604 | 10° C | 39% | 1027 hPa | - | - | - | - |
| 1777447164 | 10° C | 38% | 1027 hPa | - | - | - | - |
* Rain since midnight (hover to see other rain measurements)
** Current wind speed in m/s (hover to see current wind gust speed)